Weather History for Broomfield, CO

Change the Weather History Date:

Saturday, October 27, 2012

  Actual Average Record
Temperature  
Mean Temperature 36 °F -  
Max Temperature 48 °F 55 °F 77 °F (1999)
Min Temperature 24 °F 35 °F 21 °F (2011)
Degree Days  
Heating Degree Days 29    
Moisture  
Dew Point 24 °F    
Average Humidity 69    
Maximum Humidity 93    
Minimum Humidity 30    
Precipitation  
Precipitation 0.00 in - - ()
Sea Level Pressure  
Sea Level Pressure 30.11 in    
Wind  
Wind Speed 6 mph (NW)    
Max Wind Speed 13 mph    
Max Gust Speed 23 mph    
Visibility 9 miles    
Events      
Averages and records for this station are not official NWS values.
T = Trace of Precipitation, MM = Missing Value Source: NWS Daily Summary

Daily Weather History Graph

Daily Weather History Graph

Search for Another Location

Airport:

Trip Planner

Search our weather history database for the weather conditions in past years. The results will help you decide how hot, cold, wet, or windy it might be!

Date:

Astronomy

Oct. 27, 2012 Rise Set
Actual Time 7:24 AM MDT 6:03 PM MDT
Civil Twilight 6:56 AM MDT 6:31 PM MDT
Nautical Twilight 6:24 AM MDT 7:03 PM MDT
Astronomical Twilight 5:53 AM MDT 7:34 PM MDT
Moon 4:50 PM MDT (10/27) 5:21 AM MDT (10/27)
Length of Visible Light 11h 34m
Length of Day
10h 39m
Waxing Gibbous, 96% of the Moon is Illuminated
Oct 27
Waxing Gibbous
Oct 29
Full
Nov 6
Last Quarter
Nov 13
New
Nov 20
First Quarter

Hourly Weather History & Observations

Time (MDT) Temp. Windchill Dew Point Humidity Pressure Visibility Wind Dir Wind Speed Gust Speed Precip Events Conditions
12:16 AM 28.4 °F 21.2 °F 24.8 °F 86% 30.13 in 5.0 mi NNW 6.9 mph - N/A   Clear
12:36 AM 28.4 °F 19.7 °F 24.8 °F 86% 30.13 in 5.0 mi NNW 9.2 mph - N/A   Clear
12:55 AM 28.4 °F 19.1 °F 24.8 °F 86% 30.12 in 7.0 mi NNW 10.4 mph - N/A   Clear
1:15 AM 28.4 °F 20.4 °F 24.8 °F 86% 30.12 in 4.0 mi North 8.1 mph - N/A   Clear
1:35 AM 28.4 °F 18.0 °F 24.8 °F 86% 30.14 in 5.0 mi NNW 12.7 mph - N/A   Clear
1:56 AM 28.4 °F 19.7 °F 24.8 °F 86% 30.14 in 7.0 mi NNW 9.2 mph - N/A   Scattered Clouds
2:36 AM 28.4 °F 18.5 °F 24.8 °F 86% 30.11 in 7.0 mi North 11.5 mph - N/A   Mostly Cloudy
2:56 AM 28.4 °F - 24.8 °F 86% 30.12 in 7.0 mi Calm Calm - N/A   Scattered Clouds
3:15 AM 28.4 °F 22.2 °F 23.0 °F 80% 30.11 in 7.0 mi SSW 5.8 mph - N/A   Clear
3:36 AM 28.4 °F - 23.0 °F 80% 30.13 in 7.0 mi Calm Calm - N/A   Clear
3:56 AM 26.6 °F - 23.0 °F 86% 30.11 in 5.0 mi Calm Calm - N/A   Scattered Clouds
4:16 AM 28.4 °F - 23.0 °F 80% 30.11 in 7.0 mi Calm Calm - N/A   Scattered Clouds
4:36 AM 26.6 °F 22.6 °F 23.0 °F 86% 30.11 in 7.0 mi SW 3.5 mph - N/A   Scattered Clouds
4:55 AM 28.4 °F - 24.8 °F 86% 30.10 in 5.0 mi Calm Calm - N/A   Mostly Cloudy
5:16 AM 26.6 °F - 23.0 °F 86% 30.11 in 5.0 mi Calm Calm - N/A   Overcast
5:56 AM 26.6 °F 22.6 °F 23.0 °F 86% 30.11 in 4.0 mi West 3.5 mph - N/A   Clear
6:47 AM 24.8 °F - 21.2 °F 86% 30.11 in 20.0 mi Calm Calm - N/A   Mostly Cloudy
7:47 AM 26.6 °F 19.1 °F 24.8 °F 93% 30.11 in 15.0 mi SW 6.9 mph - N/A   Mostly Cloudy
8:47 AM 30.2 °F 23.4 °F 24.8 °F 80% 30.11 in 20.0 mi SSW 6.9 mph - N/A   Mostly Cloudy
9:57 AM 39.2 °F 35.0 °F 24.8 °F 56% 30.10 in 20.0 mi SSE 5.8 mph - N/A   Mostly Cloudy
10:47 AM 42.8 °F 38.6 °F 24.8 °F 49% 30.10 in 60.0 mi South 6.9 mph - N/A   Scattered Clouds
11:49 AM 44.6 °F 40.7 °F 28.4 °F 53% 30.09 in 60.0 mi NNW 6.9 mph - N/A   Scattered Clouds
12:50 PM 48.2 °F - 19.4 °F 32% 30.07 in 60.0 mi WNW 8.1 mph - N/A   Scattered Clouds
1:47 PM 48.2 °F - 17.6 °F 30% 30.06 in 60.0 mi NW 12.7 mph 23.0 mph N/A   Scattered Clouds
2:48 PM 46.4 °F 42.9 °F 21.2 °F 37% 30.06 in 70.0 mi North 6.9 mph - N/A   Mostly Cloudy
3:47 PM 46.4 °F 44.3 °F 21.2 °F 37% 30.07 in 70.0 mi North 4.6 mph - N/A   Mostly Cloudy
4:48 PM 48.2 °F - 19.4 °F 32% 30.06 in 70.0 mi NE 4.6 mph - N/A   Mostly Cloudy
5:48 PM 46.4 °F 45.2 °F 17.6 °F 32% 30.08 in 70.0 mi ESE 3.5 mph - N/A   Mostly Cloudy
6:48 PM 42.8 °F 41.1 °F 19.4 °F 39% 30.10 in 30.0 mi SE 3.5 mph - N/A   Mostly Cloudy
7:47 PM 41.0 °F - 21.2 °F 45% 30.12 in 30.0 mi Calm Calm - N/A   Mostly Cloudy
8:46 PM 39.2 °F 35.0 °F 23.0 °F 52% 30.12 in 20.0 mi NNW 5.8 mph - N/A   Scattered Clouds
9:49 PM 37.4 °F 31.4 °F 28.4 °F 70% 30.12 in 25.0 mi NW 8.1 mph - N/A   Scattered Clouds
11:15 PM 35.6 °F 32.8 °F 28.4 °F 75% 30.12 in 10.0 mi SE 3.5 mph - N/A   Clear
11:36 PM 35.6 °F 32.8 °F 28.4 °F 75% 30.12 in 10.0 mi NW 3.5 mph - N/A   Clear
11:56 PM 35.6 °F 29.2 °F 28.4 °F 75% 30.12 in 10.0 mi NNW 8.1 mph - N/A   Clear